x

8413320 - Bar Harbor, Me (atgm1) Weather Station

7:30 - Tue 9th Feb 2016 All times are EST. -5 hours from GMT.

  • Wind
    9mph, 14mph gusts
  • Sea Temp 35°f
  • Ar Temp 19°f
  • Sea Pressure 1005mb
  • 8413320 - Bar Harbor, Me
  • 8413320 - Bar Harbor, Me

More Historic Weather Station data

Upgrade to MSW Pro to gain access to the past 30 days of data for over 8000 Wavebouys and Weather Stations around the globe.

Join Pro

Comparision Forecast

View Surf forecast
   
Ter 02/09 7:30 9 14 mph 1005mb 35f 19f
7:24 10 14 mph 1004.9mb 35f 19f
7:18 9 14 mph 1004.8mb 36f 19f
7:12 10 14 mph 1004.7mb 35f 19f
7:06 9 13 mph 1004.7mb 36f 19f
7:00 9 13 mph 1004.7mb 36f 19f
6:54 7 13 mph 1004.7mb 36f 19f
6:48 8 13 mph 1004.7mb 35f 19f
6:42 10 14 mph 1004.6mb 35f 19f
6:36 9 11 mph 1004.5mb 36f 19f
6:30 9 11 mph 1004.6mb 35f 19f
6:24 7 13 mph 1004.6mb 35f 19f
6:18 7 10 mph 1004.6mb 35f 20f
6:12 7 13 mph 1004.6mb 35f 20f
6:06 8 14 mph 1004.7mb 35f 20f
6:00 9 15 mph 1004.6mb 35f 20f
5:54 9 14 mph 1004.6mb 35f 20f
5:48 6 15 mph 1004.7mb 35f 20f
5:42 9 14 mph 1004.7mb 35f 20f
5:36 8 10 mph 1004.7mb 35f 19f
5:30 8 14 mph 1004.6mb 35f 19f
5:24 10 14 mph 1004.7mb 35f 20f
5:18 10 16 mph 1004.8mb 35f 19f
5:12 8 14 mph 1004.9mb 35f 19f
5:06 8 13 mph 1004.9mb 35f 19f
5:00 7 16 mph 1005mb 35f 19f
4:54 8 13 mph 1005mb 35f 19f
4:48  -  mph 1005.1mb 35f 19f
4:42  -  mph 1005.2mb 35f 19f
4:36  -  mph 1005.2mb 35f 19f
4:30 7 13 mph 1005.3mb 35f 19f
4:24 10 14 mph 1005.2mb 35f 19f
4:18 10 16 mph 1005.2mb 35f 19f
4:12 8 17 mph 1005.2mb 35f 19f
4:06 8 13 mph 1005.3mb 35f 19f
4:00 7 13 mph 1005.3mb 35f 18f
3:54 8 16 mph 1005.3mb 35f 18f
3:48 11 15 mph 1005.2mb 35f 18f
3:42 10 15 mph 1005.3mb 35f 18f
3:36 10 14 mph 1005.4mb 35f 18f
3:30 10 17 mph 1005.4mb 36f 18f
3:24 9 15 mph 1005.5mb 35f 18f
3:18 8 15 mph 1005.6mb 35f 18f
3:12 10 15 mph 1005.6mb 35f 18f
3:06 10 17 mph 1005.6mb 35f 18f
3:00 11 18 mph 1005.7mb 35f 18f
2:54 9 16 mph 1005.8mb 35f 18f
2:48 10 14 mph 1005.8mb 35f 18f
2:42 11 16 mph 1005.8mb 36f 18f
2:36 10 14 mph 1005.8mb 36f 18f
2:30 9 15 mph 1005.9mb 36f 19f
2:24 9 14 mph 1005.9mb 36f 19f
2:18 9 16 mph 1006mb 36f 19f
2:12 14 18 mph 1005.9mb 36f 19f
2:06 7 20 mph 1005.9mb 36f 19f
2:00 11 16 mph 1006mb 36f 19f
1:54 11 17 mph 1006mb 36f 19f
1:48 14 21 mph 1005.9mb 36f 19f
1:42 11 21 mph 1005.8mb 36f 19f
1:36 13 17 mph 1005.8mb 36f 19f
1:30 13 21 mph 1005.8mb 36f 19f
1:24 14 20 mph 1005.7mb 36f 19f
1:18 13 20 mph 1005.8mb 36f 19f
1:12 13 18 mph 1005.8mb 36f 19f
1:06 13 21 mph 1005.7mb 36f 19f
1:00 13 22 mph 1005.8mb 36f 19f
12:54 14 18 mph 1005.8mb 36f 19f
12:48 13 25 mph 1005.8mb 36f 19f
12:42 10 21 mph 1005.9mb 36f 19f
12:36 15 22 mph 1005.8mb 36f 19f
12:30 14 21 mph 1005.9mb 36f 19f
12:24 14 21 mph 1006mb 36f 19f
12:18 15 23 mph 1006mb 36f 19f
12:12 11 22 mph 1006.2mb 36f 19f
12:06 16 21 mph 1006.1mb 36f 19f
12:00 13 22 mph 1006.2mb 35f 19f
Seg 02/08 11:54 15 23 mph 1006.1mb 35f 19f
11:48 17 24 mph 1006.1mb 35f 19f
11:42 14 22 mph 1006.1mb 35f 19f
11:36 13 22 mph 1006.1mb 35f 19f
11:30 15 22 mph 1006.1mb 35f 20f
11:24 15 22 mph 1006.1mb 35f 19f
11:18 17 23 mph 1006.1mb 35f 20f
11:12 14 20 mph 1006.1mb 35f 20f
11:06 14 20 mph 1006.1mb 35f 20f
11:00 14 23 mph 1006.1mb 35f 20f
10:54 11 25 mph 1006.2mb 35f 20f
10:48 11 22 mph 1006.1mb 35f 20f
10:42 13 21 mph 1006mb 36f 20f
10:36 14 23 mph 1006.1mb 36f 20f
10:30 16 23 mph 1006mb 36f 20f
10:24 15 23 mph 1005.9mb 36f 20f
10:18 13 25 mph 1005.8mb 36f 20f
10:12 16 23 mph 1005.9mb 36f 21f
10:06 15 24 mph 1005.9mb 36f 20f
10:00 13 21 mph 1005.9mb 36f 21f
9:54 11 23 mph 1005.9mb 36f 21f
9:48 14 21 mph 1005.9mb 36f 20f
9:42 11 17 mph 1006mb 36f 21f
9:36 16 22 mph 1006mb 36f 20f
9:30 15 22 mph 1006mb 36f 20f
9:24 16 22 mph 1006mb 36f 21f
9:18 13 22 mph 1006mb 36f 21f
9:12 13 23 mph 1006.1mb 36f 20f
9:06 17 25 mph 1006.2mb 36f 20f
9:00 16 25 mph 1006.1mb 36f 21f
8:54 16 25 mph 1006.1mb 36f 20f
8:48  -  mph 1006mb 36f 20f
8:42  -  mph 1006mb 36f 20f
8:36  -  mph 1006mb 36f 20f
8:30  -  mph 1006mb 36f 20f
8:24  -  mph 1005.9mb 36f 20f
8:18  -  mph 1005.9mb 36f 21f
8:12  -  mph 1006mb 36f 21f
8:06  -  mph 1005.8mb 36f 21f
8:00 17 24 mph 1005.9mb 36f 21f
7:54 21 29 mph 1006mb 36f 21f
7:48 20 29 mph 1005.9mb 36f 21f
7:42 18 28 mph 1005.9mb 36f 21f
7:36 18 25 mph 1005.9mb 36f 20f
7:30 20 30 mph 1006mb 36f 21f
7:24 22 28 mph 1005.7mb 36f 21f
7:18 17 28 mph 1005.8mb 36f 21f
7:12 18 28 mph 1005.7mb 36f 21f
7:06 17 26 mph 1005.7mb 36f 21f
7:00 18 24 mph 1005.8mb 36f 21f
6:54 17 23 mph 1005.7mb 36f 21f
6:48 15 28 mph 1005.8mb 36f -
6:42 20 28 mph 1005.7mb 36f -
6:36 23 29 mph 1005.6mb 36f -
6:30 18 29 mph 1005.6mb 36f 21f
6:24 20 25 mph 1005.7mb 35f 21f
6:18 20 28 mph 1005.8mb 35f 21f
6:12 22 26 mph 1005.8mb 35f 21f
6:06 20 28 mph 1006mb 35f 20f
6:00 21 31 mph 1006mb 35f 21f
5:54 22 28 mph 1005.9mb 35f 21f
5:48 20 29 mph 1006mb 35f 21f
5:42 20 29 mph 1006mb 35f 20f
5:36 22 28 mph 1006mb 35f 21f
5:30 21 26 mph 1006mb 35f 20f
5:24 18 29 mph 1006.1mb 34f 21f
5:18 20 26 mph 1006.1mb 34f 20f
5:12 20 28 mph 1006.2mb 34f 21f
5:06 22 32 mph 1006.3mb 34f 21f
5:00 21 30 mph 1006.3mb 34f 21f
4:54 22 30 mph 1006.4mb 34f 21f
4:48  -  mph 1006.4mb 34f 21f
4:42  -  mph 1006.5mb 34f 20f
4:36  -  mph 1006.8mb 34f 21f
4:30 21 29 mph 1006.7mb 34f 20f
4:24 21 28 mph 1006.8mb 34f 21f
4:18 22 30 mph 1007mb 34f 20f
4:12 24 31 mph 1007.3mb 34f 21f
4:06 24 30 mph 1007mb 34f 21f
4:00 21 29 mph 1007.3mb 34f 21f
3:54 25 31 mph 1007.4mb 34f 20f
3:48 25 31 mph 1007.5mb 34f 20f
3:42 25 32 mph 1007.6mb 34f 20f
3:36 24 30 mph 1007.8mb 34f 21f
3:30 24 28 mph 1008mb 34f 20f
3:24 23 28 mph 1008.1mb 34f 20f
3:18 22 31 mph 1008.3mb 34f 21f
3:12 22 30 mph 1008.3mb 34f 21f
3:06 23 29 mph 1008.5mb 34f 20f
3:00 22 29 mph 1008.3mb 34f 20f
2:54 21 32 mph 1008.6mb 34f 21f
2:48 23 29 mph 1008.6mb 34f 20f
2:42 24 33 mph 1008.9mb 34f 21f
2:36 25 33 mph 1008.7mb 34f 21f
2:30 25 31 mph 1008.8mb 34f 21f
2:18 26 32 mph 1008.7mb 34f 21f
2:12 25 33 mph 1008.7mb 34f 22f
2:06 23 32 mph 1008.9mb 34f 22f
2:00 24 30 mph 1009.2mb 34f 22f
1:54 25 31 mph 1009.1mb 34f 22f
1:48 23 29 mph 1009.5mb 34f 22f
1:42 26 30 mph 1009.5mb 34f 21f
1:36 22 29 mph 1009.7mb 34f 22f
1:30 22 31 mph 1010mb 34f 21f
1:24 22 29 mph 1010.1mb 35f 21f
1:18 21 29 mph 1010.5mb 35f 22f
1:12 22 30 mph 1010.3mb 35f 21f
1:06 21 28 mph 1010.4mb 34f 21f
1:00 23 29 mph 1010.5mb 35f 21f
12:54 22 26 mph 1010.7mb 35f 21f
12:48 21 28 mph 1010.7mb 35f 20f
12:42 22 30 mph 1011mb 35f 20f
12:36 20 28 mph 1010.9mb 34f 20f
12:30 20 30 mph 1011.2mb 34f 20f
12:24 22 29 mph 1011.3mb 34f 20f
12:18 22 32 mph 1011.1mb 35f 20f
12:12 22 30 mph 1011mb 35f 20f
12:06 23 29 mph 1011mb 35f 20f
12:00 22 30 mph 1011mb 35f 20f
11:54 24 30 mph 1011.1mb 35f 20f
11:48 23 29 mph 1011.5mb 35f 20f
11:42 20 29 mph 1011.5mb 35f 19f
11:36 20 25 mph 1011.8mb 35f 19f
11:30 22 29 mph 1012mb 35f 19f
11:24 21 26 mph 1012.2mb 35f 19f
11:18 21 24 mph 1012.4mb 35f 19f
11:12 22 28 mph 1012.7mb 35f 19f
11:06 22 29 mph 1012.8mb 35f 19f
11:00 16 26 mph 1013mb 35f 19f
10:54 14 25 mph 1013.2mb 35f 19f
10:48 18 28 mph 1013.1mb 35f 19f
10:42 21 28 mph 1012.9mb 35f 19f
10:36 21 29 mph 1013mb 35f 19f
10:30 21 30 mph 1012.8mb 35f 19f
10:18 21 31 mph 1013mb 36f 18f
10:12 23 30 mph 1013.2mb 36f 18f
10:06 22 29 mph 1013.2mb 36f 18f
10:00 22 28 mph 1013.2mb 35f 17f
9:54 23 29 mph 1013.4mb 35f 18f
9:48 23 28 mph 1013.7mb 35f 17f
9:42 20 26 mph 1014.1mb 35f 17f
9:36 21 28 mph 1014.1mb 35f 17f
9:30 18 26 mph 1014.1mb 35f 18f
9:24 20 28 mph 1014.4mb 35f 17f
9:18 18 25 mph 1014.4mb 35f 17f
9:12 17 24 mph 1015mb 35f 17f
9:06 22 28 mph 1015.2mb 35f 16f
9:00 20 28 mph 1015.2mb 35f 16f
8:54 22 25 mph 1015mb 35f 16f
8:48 20 26 mph 1014.9mb 35f 16f
8:42 20 26 mph 1014.9mb 35f 15f
8:36 20 24 mph 1015mb 35f 16f
8:30 18 24 mph 1015.4mb 35f 15f
8:24 17 25 mph 1015.6mb 35f 15f
8:18 17 22 mph 1015.9mb 35f 15f
8:12 15 25 mph 1016.3mb 35f 15f
8:06 17 25 mph 1016.6mb 35f 15f
8:00 16 22 mph 1016.9mb 35f 15f
7:54 17 23 mph 1016.9mb 35f 15f
7:48 18 23 mph 1016.8mb 35f 15f
7:42 16 26 mph 1016.8mb 35f 15f
7:36 20 26 mph 1016.7mb 35f 14f
7:30 18 26 mph 1016.6mb 35f 15f
7:24 18 26 mph 1016.6mb 35f 15f
7:18 20 25 mph 1016.6mb 35f 14f
7:12 16 24 mph 1016.7mb 35f 14f
7:06 17 24 mph 1016.5mb 35f 14f
7:00 22 26 mph 1016.5mb 35f 14f
6:54 20 29 mph 1016.7mb 35f 14f
6:48 22 26 mph 1016.7mb 35f 14f
6:42 18 28 mph 1017.1mb 35f 14f
6:36 20 28 mph 1017.2mb 35f 14f
6:30 20 25 mph 1017.3mb 35f 15f
6:24 20 24 mph 1017.4mb 35f 14f
6:18 17 25 mph 1017.4mb 35f 14f
6:12 16 22 mph 1017.5mb 35f 14f
6:06 17 23 mph 1017.8mb 35f 14f
6:00 15 28 mph 1017.9mb 35f 15f
5:54 16 24 mph 1017.9mb 35f 14f
5:48 15 21 mph 1018mb 35f 14f
5:42 17 25 mph 1018mb 35f 14f
5:36 20 24 mph 1018.2mb 35f 14f
5:30 17 25 mph 1018.3mb 35f 15f
5:24 21 28 mph 1018.5mb 35f 14f
5:18 18 31 mph 1018.5mb 35f 15f
5:12 20 26 mph 1018.6mb 35f 14f
5:06 15 22 mph 1018.9mb 35f 15f
5:00 18 25 mph 1019.1mb 35f 14f
4:54 16 23 mph 1019.4mb 35f 15f
4:48  -  mph 1019.6mb 35f 15f
4:42  -  mph 1019.6mb 35f 15f
4:36  -  mph 1019.7mb 35f 15f
4:30 17 28 mph 1019.6mb 35f 15f
4:24 17 21 mph 1019.7mb 35f 15f
4:18 17 22 mph 1019.6mb 35f 15f
4:12 17 22 mph 1019.6mb 35f 15f
4:06 17 23 mph 1019.6mb 35f 15f
4:00 17 23 mph 1019.6mb 36f 15f
3:54 20 24 mph 1019.7mb 36f 15f
3:48 17 24 mph 1019.7mb 36f 16f
3:42 15 26 mph 1019.7mb 36f 16f
3:36 21 25 mph 1019.8mb 36f 17f
3:30 20 24 mph 1019.8mb 36f 16f
3:24 15 25 mph 1020.1mb 36f 16f
3:18 20 25 mph 1020.2mb 36f 16f
3:12 20 28 mph 1020.4mb 36f 17f
3:06 16 25 mph 1020.5mb 36f 17f
3:00 20 24 mph 1020.6mb 36f 16f
2:54 18 25 mph 1020.7mb 36f 17f
2:48 17 28 mph 1020.7mb 36f 17f
2:42 17 25 mph 1021mb 36f 18f
2:36 16 21 mph 1021mb 36f 17f
2:30 15 22 mph 1021.1mb 36f 17f
2:24 16 22 mph 1021.2mb 36f 17f
2:18 15 20 mph 1021.6mb 36f 18f
2:12 13 23 mph 1021.5mb 36f 18f
2:06 18 23 mph 1021.6mb 36f 18f
2:00 16 25 mph 1021.5mb 36f 18f
1:54 18 25 mph 1021.5mb 36f 18f
1:48 17 24 mph 1021.6mb 36f 18f
1:42 20 25 mph 1021.4mb 37f 19f
1:36 21 29 mph 1021.5mb 37f 19f
1:30 21 24 mph 1021.3mb 37f 19f
1:24 22 25 mph 1021.5mb 37f 19f
1:18 22 28 mph 1021.5mb 37f 19f
1:12 21 26 mph 1021.4mb 37f 19f
1:06 18 26 mph 1021.6mb 37f 20f
1:00 20 25 mph 1021.7mb 37f 20f
12:54 21 26 mph 1021.8mb 37f 20f
12:48 22 28 mph 1021.4mb 37f 20f
12:42 21 29 mph 1021.4mb 37f 20f
12:36 22 29 mph 1021.2mb 37f 21f
12:30 23 31 mph 1021.4mb 37f 20f
12:24 24 29 mph 1021.7mb 37f 20f
12:18 22 28 mph 1021.7mb 37f 21f
12:12 20 26 mph 1022.2mb 37f 21f
12:06 17 24 mph 1022.3mb 37f 21f
12:00 17 24 mph 1022.7mb 37f 20f
Dom 02/07 11:54 13 24 mph 1022.8mb 37f 21f
11:48 11 20 mph 1022.9mb 37f 21f
11:42 17 22 mph 1023.2mb 37f 21f
11:36 16 21 mph 1023.3mb 37f 21f
11:30 14 21 mph 1023.4mb 37f 21f
11:24 13 21 mph 1023.6mb 37f 21f
11:18 14 17 mph 1023.7mb 37f 21f
11:12 11 16 mph 1023.8mb 37f 21f
11:06 11 16 mph 1023.9mb 37f 21f
11:00 9 14 mph 1023.9mb 37f 22f
10:54 9 14 mph 1023.9mb 37f 22f
10:48 11 16 mph 1023.9mb 37f 22f
10:42 13 16 mph 1023.9mb 37f 22f
10:36 13 17 mph 1024.1mb 37f 22f
10:30 13 17 mph 1024.2mb 37f 22f
10:24 11 17 mph 1024.3mb 37f 23f
10:18 14 17 mph 1024.2mb 37f 23f
10:12 11 16 mph 1024.3mb 37f 23f
10:06 11 17 mph 1024.4mb 37f 23f
10:00 14 18 mph 1024.4mb 37f 24f
9:54 14 18 mph 1024.2mb 37f 24f
9:48 10 16 mph 1024.4mb 37f 24f
9:42 13 16 mph 1024.2mb 37f 24f
9:36 8 15 mph 1024.2mb 37f 25f
9:30 11 15 mph 1024mb 37f 25f
9:24 11 14 mph 1024mb 37f 25f
9:18 10 15 mph 1024mb 37f 25f
9:12 14 21 mph 1023.8mb 37f 25f
9:06 13 17 mph 1023.8mb 37f 26f
9:00  -  mph 1023.7mb 37f 26f
8:54  -  mph 1023.6mb 38f 27f
8:48  -  mph 1023.6mb 38f 28f
8:42  -  mph 1023.4mb 38f 28f
8:36  -  mph 1023.3mb 38f 28f
8:30 10 15 mph 1023.2mb 38f 29f
8:24 14 15 mph 1023.2mb 38f 29f
8:18  -  mph 1023.3mb 38f 29f
8:12  -  mph 1023.2mb 37f 29f
8:06  -  mph 1023.2mb 37f 29f
8:00  -  mph 1023.3mb 37f 29f
7:54  -  mph 1023.2mb 38f 30f
7:48  -  mph 1023.1mb 38f 30f
7:42  -  mph 1022.7mb 38f 31f
7:36  -  mph 1022.9mb 38f 31f
7:30 7 10 mph 1022.5mb 38f 31f
7:24 8 10 mph 1022.5mb 38f 31f
7:18 8 13 mph 1022.1mb 38f 31f
7:12 7 14 mph 1022.1mb 38f 31f
7:06 8 13 mph 1021.8mb 38f 31f
7:00 10 15 mph 1021.9mb 37f 31f
6:54 9 14 mph 1021.9mb 37f 31f
6:48 8 13 mph 1021.8mb 37f -
6:42 8 14 mph 1021.8mb 37f -
6:36 7 11 mph 1021.9mb 37f -
6:30 8 13 mph 1021.7mb 37f 33f
6:24 10 14 mph 1021.6mb 38f 33f
6:18  -  mph 1021.5mb 38f 33f
6:12  -  mph 1021.1mb 38f 33f
6:06  -  mph 1021.1mb 38f 34f
6:00 8 15 mph 1021mb 38f 34f
5:54 10 14 mph 1020.9mb 38f 34f
5:48 8 13 mph 1020.8mb 38f 35f
5:42 9 13 mph 1020.9mb 38f 35f
5:36 7 13 mph 1020.6mb 38f 35f
5:30 8 13 mph 1020.6mb 38f 35f
5:24 7 14 mph 1020.6mb 38f 35f
5:18 6 9 mph 1020.6mb 38f 36f
5:12 7 10 mph 1020.5mb 38f 36f
5:06 5 10 mph 1020.6mb 38f 36f
5:00 7 11 mph 1020.7mb 38f 36f
4:54 9 13 mph 1020.5mb 38f 36f
4:48  -  mph 1020.6mb 38f 37f
4:42  -  mph 1020.6mb 38f 36f
4:36  -  mph 1020.5mb 38f 36f
4:30 9 14 mph 1020.5mb 38f 36f
4:24 13 14 mph 1020.3mb 38f 37f
4:18 10
mph
1020.4mb 38f 37f
4:12 10 13 mph 1020.5mb 38f 37f
4:06 10 13 mph 1020.6mb 38f 37f
4:00 9 10 mph 1020.8mb 38f 37f
3:54 9 11 mph 1020.9mb 38f 37f
3:48 8 13 mph 1020.9mb 38f 37f
3:42 11 15 mph 1020.8mb 38f 37f
3:36 10 14 mph 1020.6mb 38f 37f
3:30 10 13 mph 1020.7mb 38f 37f
3:24 10 13 mph 1020.9mb 38f 37f
3:18 7 8 mph 1020.7mb 38f 37f
3:12 8 10 mph 1020.8mb 38f 37f
3:06 9 11 mph 1020.5mb 38f 37f
3:00 7 10 mph 1020.7mb 38f 37f
2:54 8 14 mph 1020.8mb 37f 37f
2:48 10 13 mph 1020.5mb 37f 37f
2:42 8 9 mph 1020.6mb 37f 37f
2:36 8 13 mph 1020.5mb 37f 37f
2:30 10 14 mph 1020.2mb 37f 36f
2:24 10 14 mph 1020.2mb 37f 36f
2:18 10 14 mph 1020.2mb 37f 36f
2:12 8 11 mph 1020mb 37f 36f
2:06 8 10 mph 1020.1mb 37f 36f
2:00 8 10 mph 1020.2mb 37f 36f
1:54 6 11 mph 1020.3mb 37f 36f
1:48 7 11 mph 1020.1mb 37f 36f
1:42 6 9 mph 1020.4mb 37f 36f
1:36 6 10 mph 1020.2mb 37f 35f
1:30 8 11 mph 1020.6mb 37f 35f
1:24 5 8 mph 1020.6mb 37f 35f
1:18 7 10 mph 1020.5mb 37f 35f
1:12 8 10 mph 1020.2mb 37f 35f
1:06 6 10 mph 1019.9mb 37f 35f
1:00 7 9 mph 1019.6mb 37f 35f
12:54 7 14 mph 1019.9mb 37f 35f
12:48 10 11 mph 1019.6mb 37f 35f
12:42 6 15 mph 1019.2mb 37f 35f
12:36 11 15 mph 1018.9mb 37f 35f
12:30 10 15 mph 1018.7mb 37f 35f
12:24 11 16 mph 1018.5mb 37f 35f
12:18 13 18 mph 1018.5mb 37f 35f
12:12 14 17 mph 1018.4mb 37f 35f
12:06 11 15 mph 1018.5mb 37f 35f
12:00 13 17 mph 1018.5mb 37f 35f
11:54 14 20 mph 1018.5mb 37f 35f
11:48 10 14 mph 1018.3mb 37f 38f
11:42 10 15 mph 1018.3mb 37f 38f
11:36 10 13 mph 1018.3mb 37f 38f
11:30 13 16 mph 1018.4mb 37f 38f
11:24 10 14 mph 1018.4mb 37f 38f
11:18 9 14 mph 1018.6mb 37f 38f
11:12 8 14 mph 1018.8mb 37f 38f
11:06 10 14 mph 1018.6mb 37f 38f
11:00 9 14 mph 1018.6mb 37f 38f
10:54 6 15 mph 1018.6mb 37f 38f
10:48 9 15 mph 1018.4mb 37f 37f
10:42 10 16 mph 1018.4mb 37f 38f
10:36 11 15 mph 1018.4mb 37f 37f
10:30 10 14 mph 1018.3mb 37f 37f
10:24 10 17 mph 1018.3mb 37f 37f
10:18 10 15 mph 1018.4mb 37f 37f
10:12 8 15 mph 1018.5mb 37f 37f
10:06 9 13 mph 1018.5mb 37f 37f
10:00 8 15 mph 1018.5mb 37f 37f
9:54 10 14 mph 1018.5mb 37f 36f
9:48 10 16 mph 1018.4mb 37f 36f
9:42 10 15 mph 1018.4mb 37f 36f
9:36 11 15 mph 1018.3mb 38f 35f
9:30 8 14 mph 1018.2mb 38f 35f
9:24 10 14 mph 1018mb 38f 35f
9:18 13 17 mph 1018mb 38f 35f
9:12 10 17 mph 1017.9mb 38f 35f
9:06 10 21 mph 1017.7mb 38f 35f
9:00 11 17 mph 1017.6mb 38f 35f
8:54 9 15 mph 1017.7mb 38f 35f
8:48 10 15 mph 1017.6mb 38f 34f
8:42 9 16 mph 1017.8mb 38f 34f
8:36 10 16 mph 1017.8mb 38f 34f
8:30 13 18 mph 1017.6mb 38f 34f
8:24 11 18 mph 1017.7mb 38f 34f
8:18 11 16 mph 1017.7mb 38f 34f
8:12 11 16 mph 1017.8mb 38f 34f
8:06 11 18 mph 1017.8mb 38f 34f
8:00 10 17 mph 1017.8mb 38f 33f
7:54 9 16 mph 1017.8mb 38f 33f
7:48 9 14 mph 1017.7mb 38f 33f
7:42 10 17 mph 1017.7mb 38f 33f
7:36 9 15 mph 1017.7mb 38f 33f
7:30 9 14 mph 1017.7mb 38f 33f
7:24 11 16 mph 1017.7mb 38f 33f
7:18 7 16 mph 1017.7mb 38f 33f
7:12 9 15 mph 1017.7mb 38f 33f
7:06 10 14 mph 1017.7mb 38f 33f
7:00 9 13 mph 1017.6mb 38f 33f
6:54 10 14 mph 1017.6mb 38f 33f
6:48 10 14 mph 1017.5mb 38f 33f
6:42 8 13 mph 1017.5mb 38f 33f
6:36 9 14 mph 1017.5mb 38f 33f
6:30 11 15 mph 1017.4mb 38f 33f
6:24 8 14 mph 1017.2mb 38f 33f
6:18 9 15 mph 1017.3mb 38f 33f
6:12 11 18 mph 1017.2mb 38f 33f
6:06 10 15 mph 1017.2mb 38f 34f
6:00 11 16 mph 1017.2mb 38f 34f
5:54 11 17 mph 1017.1mb 38f 34f
5:48 10 17 mph 1017mb 38f 34f
5:42 11 16 mph 1017mb 38f 34f
5:36 14 18 mph 1017mb 38f 34f
5:30 13 18 mph 1017mb 38f 34f
5:24 9 17 mph 1017mb 38f 34f
5:18 11 16 mph 1016.9mb 38f 34f
5:12 10 16 mph 1016.9mb 38f 34f
5:06 11 15 mph 1016.9mb 38f 34f
5:00 11 16 mph 1016.8mb 38f 34f
4:54 10 15 mph 1016.8mb 38f 34f
4:48  -  mph - 37f 34f
4:42  -  mph - 37f 34f
4:36  -  mph - 37f 34f
4:30 7 16 mph 1016.8mb 37f 34f
4:24 9 13 mph 1016.9mb 37f 34f
4:18 9 16 mph 1016.9mb 37f 34f
4:12 7 14 mph 1016.9mb 37f 34f
4:06 8 14 mph 1016.8mb 37f 34f
4:00 7 11 mph 1016.7mb 37f 34f
3:54 7 10 mph 1016.7mb 37f 34f
3:48 10 14 mph 1016.8mb 37f 34f
3:42 10 16 mph 1016.8mb 37f 35f
3:36 8 11 mph 1016.9mb 37f 34f
3:30 7 11 mph 1016.9mb 37f 34f
3:24 8 13 mph 1016.9mb 37f 35f
3:18 9 14 mph 1017mb 37f 35f
3:12 6 10 mph 1017.1mb 37f 34f
3:06 6 11 mph 1017.2mb 37f 34f
3:00 7 13 mph 1017.2mb 37f 34f
2:54 7 10 mph 1017.4mb 37f 35f
2:48 7 13 mph 1017.5mb 38f 35f
2:42 9 15 mph 1017.5mb 38f 35f
2:36 6 13 mph 1017.5mb 37f 35f
2:30 5 14 mph 1017.6mb 37f 35f
2:24 9 11 mph 1017.7mb 37f 35f
2:18 7 10 mph 1017.8mb 37f 35f
2:12 8 14 mph 1017.9mb 37f 35f
2:06 6 11 mph 1018mb 37f 35f
2:00 7 10 mph 1018mb 37f 35f
1:54 7 11 mph 1018.1mb 37f 35f
1:48 7 10 mph 1018.1mb - -
1:42 6 11 mph 1018.2mb - -
1:36 7 11 mph 1018.2mb - -
1:30 8 11 mph 1018.2mb 37f 35f
1:24 6 10 mph 1018.3mb 37f 35f
1:18 6 9 mph 1018.3mb 37f 36f
1:12 9 14 mph 1018.3mb 37f 36f
1:06 9 15 mph 1018.3mb 37f 36f
1:00 7 14 mph 1018.4mb 37f 35f
12:54 8 11 mph 1018.5mb 37f 36f
12:48 8 14 mph 1018.5mb 37f 36f
12:42 11 17 mph 1018.6mb 37f 36f
12:36 8 16 mph 1018.7mb 37f 36f
12:30 8 14 mph 1018.8mb 37f 36f
12:24 11 16 mph 1018.9mb 37f 36f
12:18 5 11 mph 1019mb 37f 35f
12:12 10 14 mph 1019mb 37f 36f
12:06 10 15 mph 1019.1mb 37f 36f
12:00 8 21 mph 1019.2mb 37f 36f
Sáb 02/06 11:54 9 14 mph 1019.3mb 37f 36f
11:48 9 16 mph 1019.4mb 37f 36f
11:42 9 14 mph 1019.5mb 37f 36f
11:36 10 18 mph 1019.6mb 37f 36f
11:30 10 15 mph 1019.7mb 37f 36f
11:24 6 17 mph 1019.7mb 37f 35f
11:18 6 14 mph 1019.8mb 37f 35f
11:12 8 13 mph 1019.9mb 37f 35f
11:06 5 10 mph 1019.9mb 37f 35f
11:00 9 14 mph 1019.9mb 37f 36f
10:54 6 11 mph 1020mb 37f 36f
10:48 7 17 mph 1020.2mb 37f 36f
10:42 8 14 mph 1020.2mb 37f 36f
10:36 9 14 mph 1020.3mb 37f 36f
10:30 7 11 mph 1020.3mb 37f 36f
10:24 9 14 mph 1020.3mb 37f 36f
10:18 7 13 mph 1020.4mb 37f 36f
10:12 11 18 mph 1020.4mb 37f 36f
10:06 9 14 mph 1020.5mb 37f 36f
10:00 8 13 mph 1020.6mb 37f 36f
9:54 7 15 mph 1020.6mb 37f 36f
9:48 7 13 mph 1020.7mb 37f 36f
9:42 9 14 mph 1020.8mb 37f 36f
9:36 7 10 mph 1020.9mb 37f 36f
9:30 8 14 mph 1020.9mb 37f 36f
9:24 8 11 mph 1020.9mb 37f 36f
9:18 10 15 mph 1020.9mb 37f 36f
9:12 9 17 mph 1021mb 37f 36f
9:06 9 14 mph 1021mb 37f 36f
9:00 9 17 mph 1021.1mb 37f 36f
8:54 14 20 mph 1021mb 38f 36f
8:48  -  mph 1021.1mb 38f 36f
8:42  -  mph 1021.1mb 38f 36f
8:36  -  mph 1021.1mb 38f 36f
8:30 11 18 mph 1021.1mb 38f 36f
8:24 14 20 mph 1021.2mb 38f 36f
8:18 9 17 mph 1021.2mb 38f 36f
8:12 13 20 mph 1021.3mb 38f 36f
8:06 13 18 mph 1021.4mb 38f 36f
8:00 11 16 mph 1021.4mb 38f 36f
7:54 14 18 mph 1021.5mb 38f 36f
7:48 11 18 mph 1021.6mb 38f 36f
7:42 13 17 mph 1021.5mb 38f 35f
7:36 9 17 mph 1021.5mb 38f 35f
7:30 9 15 mph 1021.6mb 38f 35f
7:24 9 16 mph 1021.6mb 38f 35f
7:18 8 17 mph 1021.6mb 38f 35f
7:12 11 17 mph 1021.6mb 38f 35f
7:06 13 21 mph 1021.6mb 38f 35f
7:00 10 18 mph 1021.6mb 38f 35f
6:54 15 21 mph 1021.6mb 38f 35f
6:48 14 21 mph 1021.6mb 38f -
6:42 13 23 mph 1021.6mb 38f -
6:36 11 18 mph 1021.7mb 38f -
6:30 10 21 mph 1021.7mb 38f 35f
6:24 14 21 mph 1021.7mb 38f 35f
6:18 10 18 mph 1021.8mb 38f 35f
6:12 14 22 mph 1021.8mb 38f 35f
6:06 14 20 mph 1021.7mb 38f 35f
6:00 15 23 mph 1021.7mb 38f 35f
5:54 15 25 mph 1021.7mb 38f 35f
5:48 13 20 mph 1021.6mb 38f 35f
5:42 13 22 mph 1021.7mb 38f 35f
5:36 11 18 mph 1021.7mb 38f 35f
5:30 8 15 mph 1021.7mb 38f 35f
5:24 10 16 mph 1021.7mb 38f 35f
5:18 9 15 mph 1021.7mb 38f 35f
5:12 11 18 mph 1021.7mb 38f 35f
5:06 13 18 mph 1021.6mb 38f 35f
5:00  -  mph 1021.6mb 38f 35f
4:54  -  mph 1021.4mb 38f 35f
4:48 9 18 mph 1021.5mb 38f 35f
4:42 10 21 mph 1021.5mb 38f 35f
4:36 11 17 mph 1021.6mb 38f 35f
4:30 11 21 mph 1021.6mb 38f 35f
4:24 11 18 mph 1021.5mb 38f 35f
4:18 10 17 mph 1021.6mb 38f 35f
4:12 13 18 mph 1021.6mb 38f 35f
4:06 10 20 mph 1021.7mb 38f 35f
4:00 6 11 mph 1021.7mb 38f 35f
3:54 7 17 mph 1021.6mb 38f 35f
3:48 8 17 mph 1021.6mb 38f 35f
3:42 9 15 mph 1021.7mb 38f 35f
3:36 14 18 mph 1021.7mb 38f 35f
3:30 10 15 mph 1021.9mb 38f 35f
3:24 11 17 mph 1021.9mb 38f 35f
3:18 9 16 mph 1021.9mb 38f 34f
3:12 8 15 mph 1022mb 37f 34f
3:06 6 21 mph 1022.2mb 37f 35f
3:00 9 16 mph 1022.2mb 37f 35f
2:54 10 18 mph 1022.3mb 37f 35f
2:48 9 16 mph 1022.3mb 37f 35f
2:42 13 22 mph 1022.3mb 37f 35f
2:36 7 14 mph 1022.4mb 37f 35f
2:30 10 20 mph 1022.4mb 37f 35f
2:24 10 18 mph 1022.4mb 37f 35f
2:18 9 18 mph 1022.4mb 37f 35f
2:12 8 11 mph 1022.5mb 37f 35f
2:06 9 14 mph 1022.5mb 37f 35f
2:00 9 14 mph 1022.5mb 37f 34f
1:54 7 14 mph 1022.5mb 37f 34f
1:48 7 13 mph 1022.6mb 38f 34f
1:42 7 13 mph 1022.7mb 37f 34f
1:36 8 16 mph 1022.7mb 37f 33f
1:30 9 15 mph 1022.7mb 37f 33f
1:24 7 15 mph 1022.8mb 37f 33f
1:18 7 14 mph 1022.8mb 37f 33f
1:12 9 11 mph 1022.9mb 37f 33f
1:06 6 13 mph 1023mb 37f 33f
1:00 8 14 mph 1023mb 37f 32f
12:54 7 13 mph 1023.2mb 37f 32f
12:48 9 15 mph 1023.3mb 37f 32f
12:42 8 14 mph 1023.3mb 37f 32f
12:36 9 14 mph 1023.3mb 37f 31f
12:30 9 14 mph 1023.5mb 37f 31f
12:24 10 14 mph 1023.5mb 37f 31f
12:18 7 16 mph 1023.5mb 37f 31f
12:12 9 14 mph 1023.5mb 37f 31f
12:06 6 11 mph 1023.6mb 37f 31f
12:00 5 11 mph 1023.7mb 37f 31f
11:54 8 11 mph 1023.7mb 37f 30f
11:48 7 10 mph 1023.9mb 37f 30f
11:42 8 11 mph 1024mb 37f 30f
11:36 6 9 mph 1024.1mb 37f 30f
11:30 7 9 mph 1024.2mb 37f 30f
11:24 7 10 mph 1024.2mb 37f 30f
11:18 7 13 mph 1024.5mb 37f 29f
11:12 8 13 mph 1024.7mb 37f 29f
11:06 6 11 mph 1024.8mb 37f 29f
11:00 8 10 mph 1024.8mb 37f 29f
10:54 7 13 mph 1024.7mb 37f 29f
10:48 7 9 mph 1024.6mb 37f 29f
10:42 8 10 mph 1024.7mb 37f 29f
10:36 6 11 mph 1024.7mb 37f 28f
10:30 6 10 mph 1024.7mb 37f 28f
10:24 6 13 mph 1024.7mb 37f 28f
10:18 7 10 mph 1024.8mb 37f 28f
10:12 7 11 mph 1025.1mb 37f 28f
10:06 6 13 mph 1025.2mb 37f 28f
10:00 8 13 mph 1025.2mb 37f 27f
9:54 10 13 mph 1025.3mb 37f 27f
9:48 8 13 mph 1025.2mb 36f 27f
9:42 9 14 mph 1025.1mb 37f 26f
9:36 7 11 mph 1025.1mb 37f 26f
9:30 7 13 mph 1025.2mb 36f 26f
9:24 10 15 mph 1025.2mb 37f 26f
9:18 9 11 mph 1025.1mb 37f 26f
9:12 10 11 mph 1025mb 37f 25f
9:06 6 11 mph 1024.7mb 37f 26f
9:00 8 14 mph 1024.8mb 37f 25f
8:54 8 11 mph 1024.9mb 37f 25f
8:48 6 9 mph 1024.8mb 37f 25f
8:42 7 10 mph 1024.8mb 37f 25f
8:36 6 11 mph 1024.8mb 37f 24f
8:30 7 11 mph 1024.9mb 37f 24f
8:24 8 13 mph 1024.7mb 37f 24f
8:18 10 14 mph 1024.8mb 37f 23f
8:12 9 14 mph 1024.8mb 36f 23f
8:06 9 14 mph 1024.8mb 37f 23f
8:00 9 13 mph 1024.7mb 37f 22f
7:54 9 14 mph 1024.6mb 37f 22f
7:48 8 11 mph 1024.5mb 37f 22f
7:42 8 10 mph 1024.6mb 37f 22f
7:36 6 9 mph 1024.7mb 37f 21f
7:30 7 9 mph 1024.5mb 37f 21f
7:24 7 10 mph 1024.4mb 37f 21f
7:18 7 13 mph 1024.4mb 37f 20f
7:12 8 11 mph 1024.4mb 37f 20f
7:06 7 10 mph 1024.4mb 37f 20f
7:00 7 9 mph 1024.3mb 37f 19f
6:54 7 9 mph 1024.3mb 37f 19f
6:48 6 8 mph 1024.3mb 37f 19f
6:42 7 9 mph 1024.3mb 37f 20f
6:36 8 10 mph 1024.2mb 37f 20f
6:30 7 9 mph 1024.1mb 37f 20f
6:24 7 10 mph 1023.8mb 37f 20f
6:18 6 9 mph 1023.7mb 37f 20f
6:12 6 9 mph 1023.8mb 37f 20f
6:06 6 9 mph 1023.7mb 37f 20f
6:00 6 13 mph 1023.5mb 37f 20f
5:54 7 11 mph 1023.4mb 37f 20f
5:48 8 13 mph 1023.4mb 37f 20f
5:42 7 8 mph 1023.3mb 37f 20f
5:36 3 6 mph 1023.4mb 37f 20f
5:30 3 8 mph 1023.4mb 37f 20f
5:24 5 9 mph 1023.2mb 37f 19f
5:18 7 10 mph 1023.1mb 37f 20f
5:12 7 11 mph 1023mb 37f 20f
5:06 8 13 mph 1023mb 37f 20f
5:00 8 11 mph 1022.9mb 37f 19f
4:54 8 11 mph 1022.9mb 37f 20f
4:48  -  mph - 37f 20f
4:42  -  mph - 37f 19f
4:36  -  mph - 37f 19f
4:30 7 11 mph 1022.7mb 37f 19f
4:24 7 10 mph 1022.5mb 37f 19f
4:18 7 11 mph 1022.5mb 37f 19f
4:12 7 11 mph 1022.5mb 37f 19f
4:06 7 13 mph 1022.4mb 37f 20f
4:00 8 13 mph 1022.3mb 37f 20f
3:54 10 17 mph 1022.2mb 37f 20f
3:48 14 17 mph 1021.9mb 37f 20f
3:42 13 18 mph 1022mb 37f 20f
3:36 14 18 mph 1021.8mb 37f 20f
3:30 13 17 mph 1021.5mb 37f 20f
3:24 14 18 mph 1021.3mb 37f 21f
3:18 15 20 mph 1021.1mb 36f 21f
3:12 18 22 mph 1020.8mb 36f 21f
3:06 16 20 mph 1020.8mb 36f 21f
3:00 15 20 mph 1020.7mb 36f 21f
2:54 15 21 mph 1020.8mb 36f 21f
2:48 16 21 mph 1020.8mb 36f 21f
2:42 17 20 mph 1020.8mb 36f 21f
2:36 20 21 mph 1020.6mb 36f 21f
2:30 15 20 mph 1020.6mb 36f 21f
2:24 11 15 mph 1020.8mb 36f 20f
2:18 11 16 mph 1020.8mb 36f 21f
2:12 10 16 mph 1020.7mb 36f 20f
2:06 14 17 mph 1020.6mb 36f 21f
2:00 13 17 mph 1020.5mb 36f 21f
1:54 15 20 mph 1020.4mb 36f 22f
1:48 15 20 mph 1020.3mb 36f 21f
1:42 15 18 mph 1020.1mb 36f 21f
1:36 14 20 mph 1020.1mb 36f 21f
1:30 17 22 mph 1020mb 37f 21f
1:24 18 21 mph 1019.7mb 36f 22f
1:18 15 18 mph 1019.6mb 36f 22f
1:12 15 20 mph 1019.5mb 36f 22f
1:06 18 25 mph 1019.3mb 37f 22f
1:00 20 24 mph 1018.9mb 36f 22f
12:54 17 21 mph 1018.8mb 36f 22f
12:48 17 20 mph 1018.8mb 36f 22f
12:42 13 17 mph 1018.7mb 36f 22f
12:36 16 20 mph 1018.7mb 36f 22f
12:30 17 20 mph 1018.6mb 36f 22f
12:24 18 22 mph 1018.4mb 36f 22f
12:18 15 20 mph 1018.3mb 36f 22f
12:12 17 24 mph 1018.3mb 36f 22f
12:06 20 25 mph 1018.2mb 36f 22f
12:00 21 24 mph 1018.1mb 36f 22f
Sex 02/05 11:54 17 25 mph 1018mb 36f 23f
11:48 21 28 mph 1017.7mb 36f 23f
11:42 21 28 mph 1017.7mb 36f 23f
11:36 23 28 mph 1017.6mb 36f 23f
11:30 23 30 mph 1017.5mb 36f 23f
11:24 24 31 mph 1017.3mb 36f 23f
11:18 23 32 mph 1017.2mb 36f 23f
11:12 25 30 mph 1016.9mb 36f 23f
11:06 22 30 mph 1016.7mb 36f 23f
11:00 23 29 mph 1016.6mb 36f 23f
10:54 21 32 mph 1016.5mb 36f 23f
10:48 24 31 mph 1016.4mb 36f 23f
10:42 28 37 mph 1016.2mb 36f 22f
10:36 25 33 mph 1016mb 36f 22f
10:30 23 30 mph 1015.9mb 37f 23f
10:24 22 30 mph 1015.7mb 36f 23f
10:18 25 34 mph 1015.6mb 37f 23f
10:12 24 34 mph 1015.5mb 36f 23f
10:06 26 33 mph 1015.4mb 36f 23f
10:00 25 30 mph 1015.4mb 36f 24f
9:54 24 30 mph 1015.3mb 36f 24f
9:48 21 25 mph 1015.2mb 37f 24f
9:42 21 25 mph 1015.3mb 36f 24f
9:36 21 26 mph 1015.2mb 37f 24f
9:30 21 29 mph 1015.1mb 37f 24f
9:24 22 26 mph 1014.9mb 37f 24f
9:18 21 28 mph 1014.8mb 36f 24f
9:12 21 29 mph 1014.8mb 36f 24f
9:06 18 31 mph 1014.7mb 37f 24f
9:00 23 31 mph 1014.6mb 36f 24f
8:54 22 31 mph 1014.5mb 36f 25f
8:48 26 37 mph 1014.3mb 37f 24f
8:42 25 34 mph 1014.1mb 37f 24f
8:36 25 33 mph 1013.9mb 37f 25f
8:30 22 33 mph 1013.8mb 37f 25f
8:24 24 33 mph 1013.7mb 37f 25f
8:18 20 28 mph 1013.5mb 37f 25f
8:12 20 33 mph 1013.6mb 37f 25f
8:06 21 29 mph 1013.5mb 37f 25f
8:00 22 32 mph 1013.3mb 37f 25f
7:54 22 31 mph 1013.2mb 36f 25f
7:48 23 33 mph 1013mb 36f 25f
7:42 24 36 mph 1012.7mb 36f 25f
7:36 22 33 mph 1012.7mb 37f 25f
7:30 18 26 mph 1012.4mb 36f 26f
7:24 18 24 mph 1012.3mb 36f 26f
7:18 21 34 mph 1012.3mb 35f 26f
7:12 24 33 mph 1012.1mb 37f 26f
7:06 26 34 mph 1011.9mb 35f 26f
7:00 22 30 mph 1011.9mb 36f 26f
6:54 24 33 mph 1011.9mb 36f 26f
6:48 21 31 mph 1011.7mb 35f 26f
5:48  -  mph - 37f 28f
5:42  -  mph - 37f 27f
5:36  -  mph - 37f 28f
5:30 17 23 mph 1011.3mb 37f 28f
5:24 15 33 mph 1010.7mb 37f 28f
5:18  -  mph 1010.6mb 37f 28f
5:12  -  mph 1011mb 37f 28f
5:06  -  mph 1010.4mb 37f 28f
5:00 16 25 mph 1009.8mb 37f 28f
4:54 15 23 mph 1011.1mb 37f 28f
4:48  -  mph 1011.6mb 37f 28f
4:42  -  mph 1011.2mb 37f 29f
4:36  -  mph 1011.3mb 38f 29f
4:30 14 22 mph 1011.2mb 37f 29f
4:24 13 23 mph 1011.6mb 38f 29f
4:18 14 25 mph 1011.9mb 38f 29f
4:12 16 24 mph 1011.9mb 38f 29f
4:06 11 21 mph 1012mb 38f 29f
4:00 11 23 mph 1011.7mb 38f 29f
3:54 14 24 mph 1011.3mb 37f 29f
3:48 15 24 mph 1011.3mb 38f 29f
3:42 13 22 mph 1011.4mb 37f 29f
3:36 14 22 mph 1011.2mb 37f 30f
3:30 14 21 mph 1011.4mb 37f 30f
3:18 15 24 mph 1011.1mb 37f 30f
3:12 14 20 mph 1011mb 37f 30f
3:06 15 23 mph 1011mb 37f 30f
3:00 15 20 mph 1010.8mb 37f 30f
2:54 13 17 mph 1010.4mb 37f 30f
2:48 13 18 mph 1010.8mb 37f 30f
2:42 14 21 mph 1010.7mb 37f 30f
2:36 14 22 mph 1010.6mb 37f 30f
2:30 14 23 mph 1010.7mb 37f 30f
2:12 14 21 mph 1010.1mb 37f 30f
2:06 13 18 mph 1009.9mb 37f 30f
2:00 10 22 mph 1009.9mb 37f 30f
1:54 11 21 mph 1010.2mb 37f 30f
1:48 11 17 mph 1010.7mb 37f 30f
1:42 10 22 mph 1010.8mb 38f 30f
1:30 13 23 mph 1011.1mb 37f 30f